Time,TemperatureF,DewpointF,PressureIn,WindDirection,WindDirectionDegrees,WindSpeedMPH,WindSpeedGustMPH,Humidity,HourlyPrecipIn,Conditions,Clouds,dailyrainin,SoftwareType,DateUTC
2013-08-06 00:03:00,78.8,77.0,29.95,SW,217,0.0,0.0,93,0.00,,,0.00,weatherlink.com 1.10,2013-08-06 05:03:00,
2013-08-06 00:18:00,78.5,76.0,29.94,SW,225,0.0,5.0,93,0.00,,,0.00,weatherlink.com 1.10,2013-08-06 05:18:00,
2013-08-06 00:34:00,79.1,76.0,29.94,West,266,3.0,6.0,90,0.00,,,0.00,weatherlink.com 1.10,2013-08-06 05:34:00,
2013-08-06 00:49:00,80.0,76.0,29.94,West,259,2.0,7.0,88,0.00,,,0.00,weatherlink.com 1.10,2013-08-06 05:49:00,
2013-08-06 01:04:00,80.3,77.0,29.94,West,277,0.0,5.0,88,0.00,,,0.00,weatherlink.com 1.10,2013-08-06 06:04:00,
2013-08-06 01:19:00,80.0,76.0,29.94,West,263,2.0,7.0,88,0.00,,,0.00,weatherlink.com 1.10,2013-08-06 06:19:00,
2013-08-06 01:34:00,79.8,76.0,29.94,West,275,2.0,4.0,89,0.00,,,0.00,weatherlink.com 1.10,2013-08-06 06:34:00,
2013-08-06 01:49:00,79.4,76.0,29.93,West,275,0.0,2.0,90,0.00,,,0.00,weatherlink.com 1.10,2013-08-06 06:49:00,
2013-08-06 02:04:00,79.0,76.0,29.93,West,261,0.0,3.0,91,0.00,,,0.00,weatherlink.com 1.10,2013-08-06 07:04:00,
2013-08-06 02:19:00,78.7,76.0,29.92,West,260,0.0,3.0,91,0.00,,,0.00,weatherlink.com 1.10,2013-08-06 07:19:00,
2013-08-06 02:34:00,78.6,76.0,29.92,WSW,247,0.0,4.0,92,0.00,,,0.00,weatherlink.com 1.10,2013-08-06 07:34:00,
2013-08-06 02:49:00,78.4,76.0,29.91,West,261,0.0,3.0,92,0.00,,,0.00,weatherlink.com 1.10,2013-08-06 07:49:00,
2013-08-06 03:04:00,78.3,76.0,29.91,West,280,2.0,5.0,93,0.00,,,0.00,weatherlink.com 1.10,2013-08-06 08:04:00,
2013-08-06 03:19:00,78.3,76.0,29.92,West,263,1.0,4.0,93,0.00,,,0.00,weatherlink.com 1.10,2013-08-06 08:19:00,
2013-08-06 03:34:00,78.1,76.0,29.92,West,259,0.0,3.0,94,0.00,,,0.00,weatherlink.com 1.10,2013-08-06 08:34:00,
2013-08-06 03:49:00,77.8,76.0,29.93,West,273,0.0,1.0,94,0.00,,,0.00,weatherlink.com 1.10,2013-08-06 08:49:00,
2013-08-06 04:04:00,77.4,76.0,29.93,West,273,0.0,1.0,95,0.00,,,0.00,weatherlink.com 1.10,2013-08-06 09:04:00,
2013-08-06 04:19:00,76.9,75.0,29.93,West,273,0.0,0.0,95,0.00,,,0.00,weatherlink.com 1.10,2013-08-06 09:19:00,
2013-08-06 04:34:00,76.5,75.0,29.93,West,273,0.0,0.0,95,0.00,,,0.00,weatherlink.com 1.10,2013-08-06 09:34:00,
2013-08-06 04:49:00,76.1,75.0,29.93,West,273,0.0,2.0,96,0.00,,,0.00,weatherlink.com 1.10,2013-08-06 09:49:00,
2013-08-06 05:04:00,75.8,75.0,29.94,West,273,0.0,0.0,96,0.00,,,0.00,weatherlink.com 1.10,2013-08-06 10:04:00,
2013-08-06 05:19:00,75.4,74.0,29.93,West,273,0.0,0.0,96,0.00,,,0.00,weatherlink.com 1.10,2013-08-06 10:19:00,
2013-08-06 05:34:00,75.2,74.0,29.94,West,273,0.0,0.0,97,0.00,,,0.00,weatherlink.com 1.10,2013-08-06 10:34:00,
2013-08-06 05:49:00,74.9,74.0,29.94,West,273,0.0,0.0,97,0.00,,,0.00,weatherlink.com 1.10,2013-08-06 10:49:00,
2013-08-06 06:04:00,74.9,74.0,29.94,West,273,0.0,0.0,97,0.00,,,0.00,weatherlink.com 1.10,2013-08-06 11:04:00,
2013-08-06 06:19:00,74.8,74.0,29.95,West,273,0.0,0.0,98,0.00,,,0.00,weatherlink.com 1.10,2013-08-06 11:19:00,
2013-08-06 06:34:00,74.6,74.0,29.95,West,273,0.0,0.0,98,0.00,,,0.00,weatherlink.com 1.10,2013-08-06 11:34:00,
2013-08-06 06:49:00,74.5,74.0,29.96,West,273,0.0,1.0,98,0.00,,,0.00,weatherlink.com 1.10,2013-08-06 11:49:00,
2013-08-06 07:04:00,74.7,74.0,29.96,West,273,0.0,0.0,98,0.00,,,0.00,weatherlink.com 1.10,2013-08-06 12:04:00,
2013-08-06 07:19:00,75.0,74.0,29.97,West,273,0.0,0.0,98,0.00,,,0.00,weatherlink.com 1.10,2013-08-06 12:19:00,
2013-08-06 07:34:00,75.5,75.0,29.97,West,273,0.0,0.0,99,0.00,,,0.00,weatherlink.com 1.10,2013-08-06 12:34:00,
2013-08-06 07:49:00,76.9,77.0,29.97,West,273,0.0,1.0,99,0.00,,,0.00,weatherlink.com 1.10,2013-08-06 12:49:00,
2013-08-06 08:04:00,78.5,78.0,29.97,WNW,289,3.0,5.0,98,0.00,,,0.00,weatherlink.com 1.10,2013-08-06 13:04:00,
2013-08-06 08:19:00,80.5,79.0,29.98,WSW,245,1.0,4.0,94,0.00,,,0.00,weatherlink.com 1.10,2013-08-06 13:19:00,
2013-08-06 08:34:00,82.2,79.0,29.98,West,275,1.0,4.0,91,0.00,,,0.00,weatherlink.com 1.10,2013-08-06 13:34:00,
2013-08-06 08:49:00,83.4,80.0,29.99,West,265,3.0,6.0,89,0.00,,,0.00,weatherlink.com 1.10,2013-08-06 13:49:00,
2013-08-06 09:04:00,83.8,79.0,29.99,WNW,290,2.0,9.0,86,0.00,,,0.00,weatherlink.com 1.10,2013-08-06 14:04:00,
2013-08-06 09:19:00,84.2,80.0,29.99,WNW,294,5.0,6.0,86,0.00,,,0.00,weatherlink.com 1.10,2013-08-06 14:19:00,
2013-08-06 09:34:00,85.0,80.0,29.99,West,280,3.0,6.0,84,0.00,,,0.00,weatherlink.com 1.10,2013-08-06 14:34:00,
2013-08-06 09:50:00,85.8,79.0,29.99,West,275,5.0,9.0,81,0.00,,,0.00,weatherlink.com 1.10,2013-08-06 14:50:00,
2013-08-06 10:05:00,86.8,80.0,29.99,WNW,288,3.0,7.0,79,0.00,,,0.00,weatherlink.com 1.10,2013-08-06 15:05:00,
2013-08-06 10:20:00,86.6,79.0,29.99,NW,319,3.0,10.0,79,0.00,,,0.00,weatherlink.com 1.10,2013-08-06 15:20:00,
2013-08-06 10:35:00,87.0,79.0,29.99,WNW,282,6.0,10.0,77,0.00,,,0.00,weatherlink.com 1.10,2013-08-06 15:35:00,
2013-08-06 10:50:00,87.4,78.0,29.99,West,281,4.0,13.0,74,0.00,,,0.00,weatherlink.com 1.10,2013-08-06 15:50:00,
2013-08-06 11:05:00,87.6,78.0,29.98,NW,306,2.0,15.0,73,0.00,,,0.00,weatherlink.com 1.10,2013-08-06 16:05:00,
2013-08-06 11:20:00,89.0,79.0,29.98,WNW,290,7.0,7.0,72,0.00,,,0.00,weatherlink.com 1.10,2013-08-06 16:20:00,
2013-08-06 11:35:00,89.4,80.0,29.98,WSW,244,7.0,10.0,73,0.00,,,0.00,weatherlink.com 1.10,2013-08-06 16:35:00,
2013-08-06 11:50:00,90.2,78.0,29.97,WSW,249,1.0,10.0,68,0.00,,,0.00,weatherlink.com 1.10,2013-08-06 16:50:00,
2013-08-06 12:05:00,89.8,78.0,29.97,North,355,1.0,10.0,69,0.00,,,0.00,weatherlink.com 1.10,2013-08-06 17:05:00,
2013-08-06 12:20:00,89.6,77.0,29.96,West,273,8.0,13.0,66,0.00,,,0.00,weatherlink.com 1.10,2013-08-06 17:20:00,
2013-08-06 12:35:00,90.7,77.0,29.96,WSW,238,1.0,8.0,65,0.00,,,0.00,weatherlink.com 1.10,2013-08-06 17:35:00,
2013-08-06 12:50:00,90.8,78.0,29.96,WNW,285,7.0,11.0,67,0.00,,,0.00,weatherlink.com 1.10,2013-08-06 17:50:00,
2013-08-06 13:05:00,91.9,77.0,29.96,WNW,303,6.0,10.0,62,0.00,,,0.00,weatherlink.com 1.10,2013-08-06 18:05:00,
2013-08-06 13:20:00,91.9,79.0,29.96,WNW,294,2.0,6.0,65,0.00,,,0.00,weatherlink.com 1.10,2013-08-06 18:20:00,
2013-08-06 13:35:00,92.3,78.0,29.95,NW,308,3.0,8.0,64,0.00,,,0.00,weatherlink.com 1.10,2013-08-06 18:35:00,
2013-08-06 13:50:00,92.2,79.0,29.95,South,182,1.0,9.0,65,0.00,,,0.00,weatherlink.com 1.10,2013-08-06 18:50:00,
2013-08-06 14:05:00,93.3,78.0,29.95,SW,223,2.0,9.0,61,0.00,,,0.00,weatherlink.com 1.10,2013-08-06 19:05:00,
2013-08-06 14:20:00,93.2,76.0,29.95,West,261,2.0,10.0,58,0.00,,,0.00,weatherlink.com 1.10,2013-08-06 19:20:00,
2013-08-06 14:35:00,93.2,77.0,29.94,WNW,284,6.0,7.0,60,0.00,,,0.00,weatherlink.com 1.10,2013-08-06 19:35:00,
2013-08-06 14:50:00,92.9,77.0,29.93,WNW,288,8.0,8.0,61,0.00,,,0.00,weatherlink.com 1.10,2013-08-06 19:50:00,
2013-08-06 15:05:00,93.1,77.0,29.93,WNW,299,3.0,10.0,59,0.00,,,0.00,weatherlink.com 1.10,2013-08-06 20:05:00,
2013-08-06 15:20:00,93.1,78.0,29.93,WSW,257,0.0,6.0,61,0.00,,,0.00,weatherlink.com 1.10,2013-08-06 20:20:00,
2013-08-06 15:35:00,93.7,76.0,29.92,NW,311,4.0,7.0,57,0.00,,,0.00,weatherlink.com 1.10,2013-08-06 20:35:00,
2013-08-06 15:50:00,94.4,77.0,29.91,South,172,2.0,8.0,57,0.00,,,0.00,weatherlink.com 1.10,2013-08-06 20:50:00,
2013-08-06 16:05:00,95.0,76.0,29.91,WSW,255,1.0,8.0,55,0.00,,,0.00,weatherlink.com 1.10,2013-08-06 21:05:00,
2013-08-06 16:20:00,95.1,76.0,29.91,South,173,3.0,6.0,55,0.00,,,0.00,weatherlink.com 1.10,2013-08-06 21:20:00,
2013-08-06 16:35:00,94.7,77.0,29.91,West,277,1.0,7.0,56,0.00,,,0.00,weatherlink.com 1.10,2013-08-06 21:35:00,
2013-08-06 16:50:00,95.2,76.0,29.91,NW,310,2.0,6.0,54,0.00,,,0.00,weatherlink.com 1.10,2013-08-06 21:50:00,
2013-08-06 17:05:00,94.6,77.0,29.90,WNW,294,4.0,9.0,56,0.00,,,0.00,weatherlink.com 1.10,2013-08-06 22:05:00,
2013-08-06 17:20:00,94.7,76.0,29.89,WNW,287,4.0,6.0,55,0.00,,,0.00,weatherlink.com 1.10,2013-08-06 22:20:00,
2013-08-06 17:35:00,94.8,76.0,29.88,West,274,1.0,7.0,55,0.00,,,0.00,weatherlink.com 1.10,2013-08-06 22:35:00,
2013-08-06 17:50:00,94.3,76.0,29.88,WNW,301,6.0,8.0,55,0.00,,,0.00,weatherlink.com 1.10,2013-08-06 22:50:00,
2013-08-06 18:05:00,93.8,76.0,29.88,WNW,282,3.0,7.0,56,0.00,,,0.00,weatherlink.com 1.10,2013-08-06 23:05:00,
2013-08-06 18:20:00,94.2,77.0,29.88,WNW,293,4.0,5.0,58,0.00,,,0.00,weatherlink.com 1.10,2013-08-06 23:20:00,
2013-08-06 18:35:00,94.4,77.0,29.88,WNW,286,3.0,6.0,57,0.00,,,0.00,weatherlink.com 1.10,2013-08-06 23:35:00,
2013-08-06 18:50:00,94.2,78.0,29.89,West,277,2.0,3.0,59,0.00,,,0.00,weatherlink.com 1.10,2013-08-06 23:50:00,
2013-08-06 19:05:00,93.7,78.0,29.89,West,265,0.0,2.0,60,0.00,,,0.00,weatherlink.com 1.10,2013-08-07 00:05:00,
2013-08-06 19:20:00,92.9,78.0,29.89,West,265,0.0,1.0,63,0.00,,,0.00,weatherlink.com 1.10,2013-08-07 00:20:00,
2013-08-06 19:35:00,90.3,79.0,29.90,West,265,0.0,0.0,69,0.00,,,0.00,weatherlink.com 1.10,2013-08-07 00:35:00,
2013-08-06 19:50:00,88.1,79.0,29.90,West,265,0.0,0.0,75,0.00,,,0.00,weatherlink.com 1.10,2013-08-07 00:50:00,
2013-08-06 20:05:00,86.2,79.0,29.90,West,265,0.0,0.0,79,0.00,,,0.00,weatherlink.com 1.10,2013-08-07 01:05:00,
2013-08-06 20:20:00,84.7,78.0,29.90,West,265,0.0,0.0,81,0.00,,,0.00,weatherlink.com 1.10,2013-08-07 01:20:00,
2013-08-06 20:35:00,83.6,78.0,29.91,West,265,2.0,2.0,84,0.00,,,0.00,weatherlink.com 1.10,2013-08-07 01:35:00,
2013-08-06 20:50:00,83.3,78.0,29.91,SSW,192,2.0,4.0,84,0.00,,,0.00,weatherlink.com 1.10,2013-08-07 01:50:00,
2013-08-06 21:05:00,83.4,78.0,29.91,SW,215,2.0,3.0,84,0.00,,,0.00,weatherlink.com 1.10,2013-08-07 02:05:00,
2013-08-06 21:20:00,83.2,78.0,29.91,SSW,197,2.0,3.0,85,0.00,,,0.00,weatherlink.com 1.10,2013-08-07 02:20:00,
2013-08-06 21:35:00,83.0,79.0,29.92,SSW,198,0.0,3.0,86,0.00,,,0.00,weatherlink.com 1.10,2013-08-07 02:35:00,
2013-08-06 21:50:00,82.5,79.0,29.93,SSW,211,0.0,1.0,88,0.00,,,0.00,weatherlink.com 1.10,2013-08-07 02:50:00,
2013-08-06 22:05:00,82.0,79.0,29.93,SSW,211,1.0,1.0,89,0.00,,,0.00,weatherlink.com 1.10,2013-08-07 03:05:00,
2013-08-06 22:20:00,81.4,78.0,29.93,SSW,211,0.0,1.0,90,0.00,,,0.00,weatherlink.com 1.10,2013-08-07 03:20:00,
2013-08-06 22:35:00,81.1,78.0,29.94,SSW,201,0.0,1.0,91,0.00,,,0.00,weatherlink.com 1.10,2013-08-07 03:35:00,
2013-08-06 22:50:00,80.9,78.0,29.94,SSW,198,0.0,0.0,91,0.00,,,0.00,weatherlink.com 1.10,2013-08-07 03:50:00,
2013-08-06 23:05:00,80.6,78.0,29.94,SSW,198,0.0,1.0,91,0.00,,,0.00,weatherlink.com 1.10,2013-08-07 04:05:00,
2013-08-06 23:20:00,80.2,78.0,29.94,SSW,198,0.0,1.0,92,0.00,,,0.00,weatherlink.com 1.10,2013-08-07 04:20:00,
2013-08-06 23:36:00,79.8,78.0,29.94,SSW,198,0.0,0.0,93,0.00,,,0.00,weatherlink.com 1.10,2013-08-07 04:36:00,
2013-08-06 23:51:00,79.4,77.0,29.93,SSW,198,0.0,0.0,93,0.00,,,0.00,weatherlink.com 1.10,2013-08-07 04:51:00,